Regional Weather Roundup
Issued by NWS Sioux Falls, SD

Home | Current Version | Previous Version | Text Only | Print | Product List | Glossary On
Versions: 1 2 3 4 5 6 7 8 9 10 11 12 13 14 15 16 17 18 19 20 21 22 23 24 25 26 27 28 29 30 31 32 33 34 35 36 37 38 39 40 41 42 43 44 45 46 47 48 49 50
000
ASUS43 KFSD 240010
RWRFSD

WEATHER ROUNDUP FOR SE SOUTH DAKOTA/SW MINNESOTA/NW IOWA
NATIONAL WEATHER SERVICE SIOUX FALLS SD
700 PM CDT TUE MAY 23 2017

NOTE: "FAIR" INDICATES FEW OR NO CLOUDS BELOW 12,000 FEET WITH NO
SIGNIFICANT WEATHER AND OR OBSTRUCTIONS TO VISIBILITY.


SDZ038>040-050-052>070-240100-
SOUTHEAST SOUTH DAKOTA

CITY           SKY/WX    TMP DP  RH WIND       PRES   REMARKS
BROOKINGS      CLOUDY    52  47  83 N13       29.88S
CHAMBERLAIN    CLOUDY    56  43  62 N10G18    29.97S
6HR MIN TEMP:  52; 6HR MAX TEMP:  56;

HURON          CLOUDY    52  45  77 N14       29.94F
6HR MIN TEMP:  52; 6HR MAX TEMP:  56;

MADISON        MOCLDY    52  52 100 N17       29.89S
MITCHELL       CLOUDY    54  45  71 N21G29    29.93S
6HR MIN TEMP:  50; 6HR MAX TEMP:  58; 6HR PCP:  0.01;

SIOUX FALLS    CLOUDY    54  46  74 N15       29.86S
6HR MIN TEMP:  52; 6HR MAX TEMP:  58; 6HR PCP: TRACE;

WINNER         CLOUDY    54  41  61 N15       29.99S
YANKTON        MOSUNNY   55  46  71 NW15G28   29.88R
$$

MNZ071-072-080-081-089-090-097-098-240100-
SOUTHWEST MINNESOTA

CITY           SKY/WX    TMP DP  RH WIND       PRES   REMARKS
FAIRMONT       LGT RAIN  53  47  79 N10       29.80F
JACKSON        PTSUNNY   52  45  76 VRB10     29.82S
LUVERNE        PTSUNNY   52  45  76 N6        29.85S
MARSHALL       LGT RAIN  53  49  86 N14       29.86R
6HR MIN TEMP:  50; 6HR MAX TEMP:  59; 6HR PCP:  0.03;

MONTEVIDEO     CLOUDY    57  50  77 NE6       29.86F
PIPESTONE      PTSUNNY   55  43  62 N13       29.85S
REDWOOD FALLS  PTSUNNY   58  45  62 N12G20    29.83S
TRACY          CLOUDY    56  47  72 NE12      29.84S
WINDOM         MOSUNNY   54  45  71 NE6       29.82S
WORTHINGTON    CLOUDY    52  46  80 N9        29.83S
$$

IAZ001>003-012>014-020>022-031-032-NEZ013-014-SDZ071-240100-
NORTHWEST IOWA

CITY           SKY/WX    TMP DP  RH WIND       PRES   REMARKS
CHEROKEE       HVY RAIN  51  48  89 N7G14     29.81S
DENISON        PTSUNNY   55  45  67 N14       29.81F
ESTHERVILLE    CLOUDY    52  49  89 NE12      29.80S
LE MARS        CLOUDY    54  48  82 N5        29.84S
ORANGE CITY    PTSUNNY   54  48  82 N9        29.83S
SHELDON        PTSUNNY   55  46  71 N16         N/A
SIOUX CITY     LGT RAIN  51  49  92 N14       29.84R
6HR MIN TEMP:  50; 6HR MAX TEMP:  60; 6HR PCP:  0.21;

SPENCER        LGT RAIN  57  48  72 N14       29.81R
6HR MIN TEMP:  52; 6HR MAX TEMP:  59; 6HR PCP:  0.02;

STORM LAKE     LGT RAIN  50  46  87 N12       29.79F
$$

ABBREVIATIONS USED IN REMARKS
   TC - TEMPERATURE IN CELSIUS
  WCI - WIND CHILL INDEX
   HX - HEAT INDEX
  VSB - VISIBILITY




USA.gov is the U.S. government's official web portal to all federal, state and local government web resources and services.